�N����,�����b,�ŏ������i�x�j,���ϕ����i�x�j,�ő啗���i�x�j,�ŏ�����(m/s),���ϕ���(m/s),�ő啗��(m/s),�C��(���j,���x�i���j,�C��(hPa),�~�J��(mm),�~�J����(�b�j,�~�J���x(mm/h),�ő�~�J���x(mm/h),�~�Ђ傤��(hit/���u),�~�Ђ傤����(�b�j,�~�Ђ傤���x(hit/���uh),�ő�~�Ђ傤���x(hit/���uh),�q�[�^���x(���j,�q�[�^�[�d���iV),�d���d���iV),�Q�Ɠd���iV)
2011/04/01,00:00:01,067,097,127,0.8,1.1,1.6,16.1,66.2,1013.7,0.00,0,0.0,////,0.0,0,0.0,////,14.8,0.0,12.3,3.513
2011/04/01,00:10:01,124,134,153,0.8,1.3,1.7,16.5,63.1,1013.8,0.00,0,0.0,////,0.0,0,0.0,////,15.0,0.0,12.3,3.511
2011/04/01,00:20:01,053,070,090,1.0,1.3,1.6,16.6,62.5,1013.6,0.00,0,0.0,////,0.0,0,0.0,////,15.3,0.0,12.3,3.513
2011/04/01,00:30:01,078,089,098,1.4,1.5,1.7,16.6,62.1,1013.4,0.00,0,0.0,////,0.0,0,0.0,////,15.1,0.0,12.3,3.513
2011/04/01,00:40:01,337,019,085,0.5,0.6,0.7,16.6,61.6,1013.3,0.00,0,0.0,////,0.0,0,0.0,////,15.3,0.0,12.3,3.514
2011/04/01,00:50:01,118,122,126,1.7,2.0,2.2,16.6,61.3,1013.4,0.00,0,0.0,////,0.0,0,0.0,////,15.3,0.0,12.3,3.511
2011/04/01,01:00:01,090,094,099,2.4,2.9,3.2,16.6,62.3,1013.2,0.00,0,0.0,////,0.0,0,0.0,////,15.1,0.0,12.3,3.513
2011/04/01,01:10:01,039,055,070,0.7,0.8,0.9,16.5,61.1,1013.0,0.00,0,0.0,////,0.0,0,0.0,////,15.1,0.0,12.3,3.513
2011/04/01,01:20:01,101,109,117,0.8,1.2,1.9,16.6,60.9,1012.9,0.00,0,0.0,////,0.0,0,0.0,////,15.0,0.0,12.3,3.513
2011/04/01,01:30:01,131,135,139,1.3,1.5,1.7,16.2,64.0,1013.0,0.00,0,0.0,////,0.0,0,0.0,////,15.1,0.0,12.3,3.513
2011/04/01,01:40:01,060,109,137,0.3,0.5,0.7,16.0,65.5,1012.9,0.00,0,0.0,////,0.0,0,0.0,////,14.6,0.0,12.3,3.511
2011/04/01,01:50:01,125,132,140,0.9,1.1,1.4,16.3,64.5,1012.7,0.00,0,0.0,////,0.0,0,0.0,////,15.0,0.0,12.3,3.514
2011/04/01,02:00:01,070,072,076,1.0,1.2,1.5,16.2,65.7,1012.5,0.00,0,0.0,////,0.0,0,0.0,////,15.0,0.0,12.3,3.511
2011/04/01,02:10:01,358,118,233,0.2,0.4,0.8,16.7,63.8,1012.6,0.00,0,0.0,////,0.0,0,0.0,////,15.3,0.0,12.3,3.511
2011/04/01,02:20:01,118,131,138,1.7,2.0,2.3,16.8,63.1,1012.5,0.00,0,0.0,////,0.0,0,0.0,////,15.6,0.0,12.3,3.513
2011/04/01,02:30:01,173,176,182,1.0,1.1,1.2,16.7,62.8,1012.3,0.00,0,0.0,////,0.0,0,0.0,////,15.5,0.0,12.3,3.513
2011/04/01,02:40:01,122,143,175,0.2,0.5,0.8,16.6,63.4,1012.4,0.00,0,0.0,////,0.0,0,0.0,////,15.3,0.0,12.3,3.513
2011/04/01,02:50:01,107,122,130,1.5,1.7,1.8,16.3,64.5,1012.4,0.00,0,0.0,////,0.0,0,0.0,////,15.0,0.0,12.3,3.511
2011/04/01,03:00:01,119,122,124,1.2,1.3,1.4,16.2,64.8,1012.2,0.00,0,0.0,////,0.0,0,0.0,////,14.6,0.0,12.3,3.513
2011/04/01,03:10:01,117,119,123,1.3,1.4,1.4,16.2,65.3,1012.1,0.00,0,0.0,////,0.0,0,0.0,////,14.8,0.0,12.3,3.513
2011/04/01,03:20:01,103,109,118,1.0,1.2,1.4,15.9,66.2,1012.0,0.00,0,0.0,////,0.0,0,0.0,////,14.4,0.0,12.3,3.513
2011/04/01,03:30:01,113,127,134,0.8,0.9,1.0,15.9,65.5,1012.1,0.00,0,0.0,////,0.0,0,0.0,////,14.3,0.0,12.3,3.513
2011/04/01,03:40:01,106,114,120,1.3,1.4,1.4,15.5,67.6,1012.0,0.00,0,0.0,////,0.0,0,0.0,////,13.9,0.0,12.3,3.513
2011/04/01,03:50:01,098,103,112,0.9,1.1,1.3,15.4,67.8,1012.1,0.00,0,0.0,////,0.0,0,0.0,////,13.7,0.0,12.3,3.513
2011/04/01,04:00:01,135,139,141,1.1,1.2,1.4,15.7,66.0,1012.1,0.00,0,0.0,////,0.0,0,0.0,////,13.9,0.0,12.3,3.513
2011/04/01,04:10:01,097,103,113,0.9,1.1,1.2,15.7,66.3,1011.9,0.00,0,0.0,////,0.0,0,0.0,////,14.1,0.0,12.3,3.513
2011/04/01,04:20:01,155,170,184,0.7,0.8,1.0,15.5,67.1,1012.0,0.00,0,0.0,////,0.0,0,0.0,////,13.9,0.0,12.3,3.513
2011/04/01,04:30:01,046,050,055,1.9,2.0,2.1,15.6,68.5,1011.8,0.00,0,0.0,////,0.0,0,0.0,////,13.9,0.0,12.3,3.513
2011/04/01,04:40:01,138,156,167,0.5,0.7,0.8,16.0,67.4,1012.0,0.00,0,0.0,////,0.0,0,0.0,////,14.3,0.0,12.3,3.515
2011/04/01,04:50:01,107,135,161,0.7,0.9,1.1,15.6,68.3,1012.2,0.00,0,0.0,////,0.0,0,0.0,////,14.1,0.0,12.3,3.513
2011/04/01,05:00:01,082,108,125,0.4,0.5,0.7,15.7,67.8,1012.2,0.00,0,0.0,////,0.0,0,0.0,////,14.1,0.0,12.2,3.511
2011/04/01,05:10:01,129,131,134,1.3,1.5,1.6,15.5,68.0,1012.2,0.00,0,0.0,////,0.0,0,0.0,////,14.1,0.0,12.3,3.513
2011/04/01,05:20:01,096,105,116,0.5,0.6,0.8,15.4,67.8,1012.4,0.00,0,0.0,////,0.0,0,0.0,////,13.7,0.0,12.4,3.513
2011/04/01,05:30:01,109,129,139,0.9,1.0,1.1,15.2,68.0,1012.3,0.00,0,0.0,////,0.0,0,0.0,////,13.6,0.0,12.3,3.513
2011/04/01,05:40:01,122,124,126,1.2,1.3,1.4,15.3,68.4,1012.2,0.00,0,0.0,////,0.0,0,0.0,////,13.6,0.0,12.3,3.513
2011/04/01,05:50:01,115,124,134,1.4,1.8,2.1,15.6,67.8,1012.1,0.00,0,0.0,////,0.0,0,0.0,////,13.9,0.0,12.4,3.513
2011/04/01,06:00:01,114,126,134,0.5,0.7,0.9,15.5,68.1,1012.2,0.00,0,0.0,////,0.0,0,0.0,////,13.9,0.0,12.3,3.515
2011/04/01,06:10:01,118,121,123,2.1,2.2,2.4,15.3,67.9,1012.4,0.00,0,0.0,////,0.0,0,0.0,////,13.7,0.0,12.3,3.513
2011/04/01,06:20:01,114,115,117,1.5,1.7,1.9,15.4,67.9,1012.5,0.00,0,0.0,////,0.0,0,0.0,////,13.7,0.0,12.3,3.513
2011/04/01,06:30:01,118,128,141,1.2,1.4,1.5,15.4,67.5,1012.6,0.00,0,0.0,////,0.0,0,0.0,////,13.7,0.0,12.3,3.513
2011/04/01,06:40:01,117,122,126,1.6,1.9,2.2,15.5,67.8,1012.7,0.00,0,0.0,////,0.0,0,0.0,////,14.1,0.0,12.3,3.513
2011/04/01,06:50:01,104,120,129,1.0,1.2,1.6,15.7,66.6,1013.0,0.00,0,0.0,////,0.0,0,0.0,////,14.3,0.0,12.3,3.513
2011/04/01,07:00:01,093,098,103,2.0,2.2,2.4,15.8,66.8,1013.0,0.00,0,0.0,////,0.0,0,0.0,////,14.4,0.0,12.3,3.513
2011/04/01,07:10:01,103,110,117,1.5,1.7,2.0,16.1,65.8,1013.0,0.00,0,0.0,////,0.0,0,0.0,////,15.0,0.0,12.2,3.511
2011/04/01,07:20:01,096,100,103,2.3,2.5,2.7,16.4,65.3,1013.2,0.00,0,0.0,////,0.0,0,0.0,////,15.8,0.0,12.3,3.513
2011/04/01,07:30:01,092,096,099,1.6,1.7,1.8,17.1,63.0,1013.3,0.00,0,0.0,////,0.0,0,0.0,////,16.7,0.0,12.3,3.514
2011/04/01,07:40:01,092,099,107,0.9,1.1,1.2,17.6,62.1,1013.3,0.00,0,0.0,////,0.0,0,0.0,////,17.9,0.0,12.3,3.510
2011/04/01,07:50:01,109,110,110,2.1,2.2,2.3,18.2,59.0,1013.5,0.00,0,0.0,////,0.0,0,0.0,////,18.7,0.0,12.3,3.511
2011/04/01,08:00:01,116,119,122,2.2,2.3,2.5,18.3,57.8,1013.7,0.00,0,0.0,////,0.0,0,0.0,////,19.1,0.0,12.3,3.513
2011/04/01,08:10:01,104,129,148,0.9,1.2,1.5,18.4,59.5,1013.8,0.00,0,0.0,////,0.0,0,0.0,////,19.1,0.0,12.3,3.511
2011/04/01,08:20:01,104,114,123,2.4,2.7,3.3,18.8,56.9,1014.0,0.00,0,0.0,////,0.0,0,0.0,////,20.3,0.0,12.2,3.513
2011/04/01,08:30:01,116,124,130,2.6,2.9,3.1,19.1,56.5,1014.1,0.00,0,0.0,////,0.0,0,0.0,////,20.5,0.0,12.3,3.513
2011/04/01,08:40:01,113,125,131,2.5,3.1,3.7,19.1,54.1,1014.2,0.00,0,0.0,////,0.0,0,0.0,////,20.6,0.0,12.3,3.515
2011/04/01,08:50:01,055,088,113,1.7,1.9,2.1,19.3,54.8,1014.3,0.00,0,0.0,////,0.0,0,0.0,////,20.8,0.0,12.4,3.511
2011/04/01,09:00:01,117,121,128,1.2,1.8,2.3,19.5,53.6,1014.3,0.00,0,0.0,////,0.0,0,0.0,////,21.3,0.0,12.3,3.511
2011/04/01,09:10:01,102,107,114,2.5,3.2,3.6,19.6,53.0,1014.5,0.00,0,0.0,////,0.0,0,0.0,////,21.3,0.0,12.3,3.513
2011/04/01,09:20:01,096,103,108,1.3,1.5,1.6,19.9,53.8,1014.7,0.00,0,0.0,////,0.0,0,0.0,////,21.7,0.0,12.3,3.511
2011/04/01,09:30:01,096,104,115,3.6,3.9,4.2,19.7,53.1,1014.8,0.00,0,0.0,////,0.0,0,0.0,////,21.3,0.0,12.3,3.511
2011/04/01,09:40:01,104,111,115,2.3,2.8,3.2,19.9,51.0,1014.8,0.00,0,0.0,////,0.0,0,0.0,////,22.0,0.0,12.2,3.513
2011/04/01,09:50:01,106,110,116,3.1,3.4,3.6,20.5,50.5,1014.8,0.00,0,0.0,////,0.0,0,0.0,////,23.1,0.0,12.3,3.513
2011/04/01,10:00:01,103,107,110,0.5,0.9,1.3,20.6,50.5,1014.8,0.00,0,0.0,////,0.0,0,0.0,////,23.2,0.0,12.3,3.513
2011/04/01,10:10:01,123,135,149,2.4,2.8,3.4,20.4,51.5,1014.8,0.00,0,0.0,////,0.0,0,0.0,////,23.2,0.0,12.3,3.513
2011/04/01,10:20:01,112,134,174,0.9,1.4,1.8,20.3,52.8,1014.8,0.00,0,0.0,////,0.0,0,0.0,////,23.1,0.0,12.3,3.513
2011/04/01,10:30:01,095,107,130,2.3,3.3,4.1,20.1,52.5,1014.8,0.00,0,0.0,////,0.0,0,0.0,////,22.0,0.0,12.3,3.513
2011/04/01,10:40:01,083,119,143,0.7,1.0,1.5,20.6,49.6,1014.9,0.00,0,0.0,////,0.0,0,0.0,////,23.2,0.0,12.3,3.511
2011/04/01,10:50:01,091,099,110,1.1,1.3,1.5,20.5,49.3,1014.9,0.00,0,0.0,////,0.0,0,0.0,////,23.1,0.0,12.3,3.513
2011/04/01,11:00:01,125,128,129,3.0,3.3,3.7,20.7,48.4,1014.9,0.00,0,0.0,////,0.0,0,0.0,////,23.6,0.0,12.2,3.513
2011/04/01,11:10:01,112,117,124,3.2,3.7,4.3,21.3,49.4,1014.8,0.00,0,0.0,////,0.0,0,0.0,////,24.1,0.0,12.3,3.513
2011/04/01,11:20:01,095,110,126,2.4,2.7,2.9,21.3,48.9,1014.7,0.00,0,0.0,////,0.0,0,0.0,////,24.8,0.0,12.3,3.513
2011/04/01,11:30:01,116,127,143,3.0,3.1,3.2,20.9,50.8,1014.7,0.00,0,0.0,////,0.0,0,0.0,////,23.9,0.0,12.3,3.513
2011/04/01,11:40:01,089,105,119,1.8,2.4,3.0,20.9,51.2,1014.5,0.00,0,0.0,////,0.0,0,0.0,////,23.7,0.0,12.3,3.513
2011/04/01,11:50:01,110,127,137,2.5,3.2,3.9,20.6,50.8,1014.3,0.00,0,0.0,////,0.0,0,0.0,////,22.9,0.0,12.3,3.513
2011/04/01,12:00:01,109,118,130,3.3,3.8,4.5,20.9,52.4,1014.2,0.00,0,0.0,////,0.0,0,0.0,////,22.9,0.0,12.3,3.513
2011/04/01,12:10:01,109,125,136,2.0,2.4,2.9,21.0,51.2,1014.1,0.00,0,0.0,////,0.0,0,0.0,////,23.4,0.0,12.3,3.511
2011/04/01,12:20:01,093,107,116,2.5,3.3,4.3,21.4,49.3,1014.1,0.00,0,0.0,////,0.0,0,0.0,////,24.1,0.0,12.3,3.513
2011/04/01,12:30:01,089,105,123,1.9,2.4,2.7,21.4,49.1,1014.0,0.00,0,0.0,////,0.0,0,0.0,////,24.4,0.0,12.3,3.513
2011/04/01,12:40:01,106,109,112,3.5,4.0,4.6,20.9,50.9,1013.9,0.00,0,0.0,////,0.0,0,0.0,////,23.4,0.0,12.3,3.513
2011/04/01,12:50:01,083,097,105,1.6,2.4,2.9,21.1,53.1,1013.7,0.00,0,0.0,////,0.0,0,0.0,////,23.6,0.0,12.3,3.513
2011/04/01,13:00:01,101,103,104,2.6,3.3,3.9,21.3,50.5,1013.6,0.00,0,0.0,////,0.0,0,0.0,////,23.9,0.0,12.4,3.511
2011/04/01,13:10:01,112,119,131,2.7,3.2,3.5,21.0,51.6,1013.5,0.00,0,0.0,////,0.0,0,0.0,////,23.2,0.0,12.4,3.513
2011/04/01,13:20:01,104,110,119,4.3,4.9,5.2,21.5,51.0,1013.3,0.00,0,0.0,////,0.0,0,0.0,////,24.1,0.0,12.3,3.511
2011/04/01,13:30:01,110,116,119,3.4,3.6,3.8,21.6,49.0,1013.2,0.00,0,0.0,////,0.0,0,0.0,////,24.6,0.0,12.3,3.513
2011/04/01,13:40:01,093,102,112,1.4,2.0,2.5,21.6,50.2,1013.0,0.00,0,0.0,////,0.0,0,0.0,////,23.9,0.0,12.3,3.513
2011/04/01,13:50:01,099,126,139,2.4,3.0,3.4,21.4,49.1,1012.9,0.00,0,0.0,////,0.0,0,0.0,////,24.3,0.0,12.4,3.511
2011/04/01,14:00:01,083,087,092,2.5,2.9,3.3,20.8,49.7,1013.0,0.00,0,0.0,////,0.0,0,0.0,////,22.9,0.0,12.3,3.511
2011/04/01,14:10:01,104,105,105,4.4,4.6,4.7,21.0,51.4,1012.9,0.00,0,0.0,////,0.0,0,0.0,////,22.9,0.0,12.2,3.513
2011/04/01,14:20:01,112,116,120,4.2,4.3,4.4,20.7,51.3,1012.8,0.00,0,0.0,////,0.0,0,0.0,////,22.9,0.0,12.2,3.511
2011/04/01,14:30:01,108,117,123,2.3,2.7,2.9,21.0,50.6,1012.6,0.00,0,0.0,////,0.0,0,0.0,////,23.4,0.0,12.4,3.513
2011/04/01,14:40:01,115,121,126,1.5,1.8,2.4,21.2,50.4,1012.4,0.00,0,0.0,////,0.0,0,0.0,////,23.4,0.0,12.3,3.513
2011/04/01,14:50:01,101,104,108,2.5,2.7,2.9,21.2,49.7,1012.3,0.00,0,0.0,////,0.0,0,0.0,////,23.7,0.0,12.3,3.509
2011/04/01,15:00:01,001,095,169,0.3,0.5,0.8,21.1,48.1,1012.3,0.00,0,0.0,////,0.0,0,0.0,////,23.4,0.0,12.2,3.513
2011/04/01,15:10:01,042,059,073,1.0,1.1,1.2,20.8,50.5,1012.2,0.00,0,0.0,////,0.0,0,0.0,////,22.5,0.0,12.3,3.511
2011/04/01,15:20:01,136,151,167,1.0,1.2,1.7,20.9,51.0,1012.1,0.00,0,0.0,////,0.0,0,0.0,////,22.7,0.0,12.3,3.513
2011/04/01,15:30:01,107,114,124,3.2,3.8,4.5,20.2,52.3,1012.1,0.00,0,0.0,////,0.0,0,0.0,////,21.3,0.0,12.2,3.516
2011/04/01,15:40:01,095,104,114,0.5,1.2,1.7,20.7,52.7,1012.0,0.00,0,0.0,////,0.0,0,0.0,////,22.4,0.0,12.3,3.511
2011/04/01,15:50:01,087,100,112,1.9,2.5,3.0,20.7,53.3,1012.0,0.00,0,0.0,////,0.0,0,0.0,////,22.5,0.0,12.2,3.513
2011/04/01,16:00:01,033,050,070,2.4,2.9,3.2,20.9,53.3,1011.9,0.00,0,0.0,////,0.0,0,0.0,////,22.7,0.0,12.3,3.513
2011/04/01,16:10:01,349,071,114,0.4,0.8,1.1,20.9,54.3,1011.9,0.00,0,0.0,////,0.0,0,0.0,////,22.9,0.0,12.3,3.513
2011/04/01,16:20:01,108,115,118,4.8,5.2,5.7,20.1,54.1,1011.8,0.00,0,0.0,////,0.0,0,0.0,////,21.3,0.0,12.2,3.513
2011/04/01,16:30:01,105,125,138,3.1,3.3,3.6,20.3,53.4,1011.7,0.00,0,0.0,////,0.0,0,0.0,////,21.5,0.0,12.4,3.511
2011/04/01,16:40:01,116,133,145,2.5,2.8,3.1,20.2,52.6,1011.7,0.00,0,0.0,////,0.0,0,0.0,////,21.3,0.0,12.2,3.513
2011/04/01,16:50:01,103,118,130,3.2,3.8,4.2,20.1,50.9,1011.7,0.00,0,0.0,////,0.0,0,0.0,////,21.2,0.0,12.3,3.513
2011/04/01,17:00:01,085,167,250,0.5,0.8,1.0,20.1,49.7,1011.7,0.00,0,0.0,////,0.0,0,0.0,////,21.2,0.0,12.2,3.511
2011/04/01,17:10:01,105,115,135,1.9,2.0,2.3,19.9,50.0,1011.7,0.00,0,0.0,////,0.0,0,0.0,////,21.0,0.0,12.3,3.511
2011/04/01,17:20:01,125,129,134,2.6,2.7,2.9,19.8,51.2,1011.7,0.00,0,0.0,////,0.0,0,0.0,////,20.5,0.0,12.3,3.511
2011/04/01,17:30:01,101,107,111,2.6,2.8,3.0,19.7,52.9,1011.7,0.00,0,0.0,////,0.0,0,0.0,////,20.3,0.0,12.2,3.513
2011/04/01,17:40:01,098,104,109,2.5,3.1,3.7,19.6,54.0,1011.7,0.00,0,0.0,////,0.0,0,0.0,////,20.1,0.0,12.3,3.511
2011/04/01,17:50:01,116,118,119,2.4,2.8,3.1,19.4,53.5,1011.6,0.00,0,0.0,////,0.0,0,0.0,////,19.8,0.0,12.3,3.513
2011/04/01,18:00:01,112,116,121,1.5,1.7,2.0,19.2,53.5,1011.6,0.00,0,0.0,////,0.0,0,0.0,////,19.3,0.0,12.4,3.513
2011/04/01,18:10:01,102,108,112,2.8,3.0,3.2,19.1,54.3,1011.6,0.00,0,0.0,////,0.0,0,0.0,////,18.4,0.0,12.2,3.513
2011/04/01,18:20:01,119,125,128,1.8,1.9,2.0,19.0,57.5,1011.6,0.00,0,0.0,////,0.0,0,0.0,////,18.6,0.0,12.3,3.513
2011/04/01,18:30:01,116,128,135,0.4,0.5,0.7,18.8,57.1,1011.7,0.00,0,0.0,////,0.0,0,0.0,////,18.1,0.0,12.2,3.513
2011/04/01,18:40:01,095,105,124,0.8,1.7,2.3,18.6,59.4,1011.7,0.00,0,0.0,////,0.0,0,0.0,////,17.7,0.0,12.3,3.511
2011/04/01,18:50:01,113,122,128,1.8,1.9,2.1,18.4,60.4,1011.8,0.00,0,0.0,////,0.0,0,0.0,////,17.2,0.0,12.3,3.513
2011/04/01,19:00:01,066,087,097,1.6,2.4,3.0,18.3,60.4,1011.8,0.00,0,0.0,////,0.0,0,0.0,////,17.2,0.0,12.2,3.513
2011/04/01,19:10:01,058,096,119,0.5,0.7,1.0,18.1,61.1,1011.8,0.00,0,0.0,////,0.0,0,0.0,////,16.9,0.0,12.2,3.513
2011/04/01,19:20:01,081,090,102,2.4,2.7,3.1,18.2,61.0,1011.8,0.00,0,0.0,////,0.0,0,0.0,////,17.0,0.0,12.3,3.511
2011/04/01,19:30:01,060,074,095,1.3,1.4,1.6,18.4,60.7,1011.9,0.00,0,0.0,////,0.0,0,0.0,////,17.2,0.0,12.3,3.513
2011/04/01,19:40:01,064,074,088,1.6,2.1,2.7,18.3,60.2,1012.1,0.00,0,0.0,////,0.0,0,0.0,////,17.2,0.0,12.3,3.513
2011/04/01,19:50:01,094,107,121,1.6,1.8,2.0,18.4,60.0,1012.2,0.00,0,0.0,////,0.0,0,0.0,////,17.2,0.0,12.2,3.513
2011/04/01,20:00:01,117,122,129,1.0,1.2,1.4,18.2,61.0,1012.3,0.00,0,0.0,////,0.0,0,0.0,////,17.0,0.0,12.3,3.514
2011/04/01,20:10:01,124,128,130,1.3,1.4,1.5,18.2,60.8,1012.3,0.00,0,0.0,////,0.0,0,0.0,////,17.0,0.0,12.3,3.511
2011/04/01,20:20:01,116,128,135,2.4,2.5,2.7,18.2,62.2,1012.3,0.00,0,0.0,////,0.0,0,0.0,////,17.0,0.0,12.2,3.513
2011/04/01,20:30:01,121,131,139,1.5,1.7,1.9,18.2,61.8,1012.4,0.00,0,0.0,////,0.0,0,0.0,////,17.0,0.0,12.3,3.511
2011/04/01,20:40:01,093,104,117,2.4,2.8,3.1,18.1,62.4,1012.5,0.00,0,0.0,////,0.0,0,0.0,////,17.0,0.0,12.3,3.514
2011/04/01,20:50:01,116,121,126,1.1,1.3,1.4,18.1,62.3,1012.6,0.00,0,0.0,////,0.0,0,0.0,////,16.9,0.0,12.3,3.511
2011/04/01,21:00:01,150,164,183,1.8,2.2,2.5,18.0,61.6,1012.6,0.00,0,0.0,////,0.0,0,0.0,////,16.7,0.0,12.2,3.513
2011/04/01,21:10:01,126,136,158,1.5,2.0,2.3,17.9,61.3,1012.8,0.00,0,0.0,////,0.0,0,0.0,////,16.5,0.0,12.3,3.513
2011/04/01,21:20:01,072,087,101,0.4,0.7,1.1,17.6,62.1,1012.8,0.00,0,0.0,////,0.0,0,0.0,////,16.2,0.0,12.3,3.513
2011/04/01,21:30:01,121,122,123,1.0,1.0,1.1,17.7,61.8,1012.9,0.00,0,0.0,////,0.0,0,0.0,////,16.2,0.0,12.3,3.514
2011/04/01,21:40:01,099,104,113,1.9,2.2,2.5,17.7,62.6,1013.0,0.00,0,0.0,////,0.0,0,0.0,////,16.2,0.0,12.3,3.513
2011/04/01,21:50:01,120,129,135,1.3,1.6,1.9,17.9,61.4,1013.0,0.00,0,0.0,////,0.0,0,0.0,////,16.5,0.0,12.2,3.513
2011/04/01,22:00:01,114,117,118,3.0,3.6,4.1,17.9,62.2,1013.0,0.00,0,0.0,////,0.0,0,0.0,////,16.5,0.0,12.3,3.511
2011/04/01,22:10:01,113,131,149,0.9,1.1,1.4,18.3,61.7,1013.0,0.00,0,0.0,////,0.0,0,0.0,////,17.0,0.0,12.3,3.513
2011/04/01,22:20:01,095,103,118,1.8,2.0,2.4,18.1,61.8,1013.0,0.00,0,0.0,////,0.0,0,0.0,////,16.7,0.0,12.3,3.513
2011/04/01,22:30:01,114,126,138,2.8,3.2,3.7,18.1,62.1,1012.9,0.00,0,0.0,////,0.0,0,0.0,////,16.9,0.0,12.3,3.513
2011/04/01,22:40:01,087,097,110,3.1,3.8,5.0,18.0,62.6,1012.9,0.00,0,0.0,////,0.0,0,0.0,////,16.9,0.0,12.2,3.523
2011/04/01,22:50:01,104,115,122,2.5,2.7,3.0,18.4,61.6,1012.9,0.00,0,0.0,////,0.0,0,0.0,////,17.2,0.0,12.3,3.513
2011/04/01,23:00:01,099,105,113,0.8,1.0,1.1,18.0,61.4,1012.8,0.00,0,0.0,////,0.0,0,0.0,////,16.9,0.0,12.3,3.511
2011/04/01,23:10:01,132,143,150,1.4,1.9,2.3,17.8,61.1,1012.8,0.00,0,0.0,////,0.0,0,0.0,////,16.5,0.0,12.4,3.513
2011/04/01,23:20:01,109,121,131,1.2,1.5,1.8,17.7,61.2,1012.7,0.00,0,0.0,////,0.0,0,0.0,////,16.3,0.0,12.3,3.514
2011/04/01,23:30:01,152,159,165,0.7,0.9,1.2,17.6,61.2,1012.7,0.00,0,0.0,////,0.0,0,0.0,////,15.8,0.0,12.3,3.513
2011/04/01,23:40:01,123,130,136,0.8,1.0,1.2,17.7,61.1,1012.6,0.00,0,0.0,////,0.0,0,0.0,////,16.2,0.0,12.2,3.511
2011/04/01,23:50:01,327,063,093,0.0,0.2,0.3,17.6,62.6,1012.7,0.00,0,0.0,////,0.0,0,0.0,////,16.2,0.0,12.3,3.514
2011/04/02,00:00:01,087,104,113,1.6,1.7,1.8,17.6,63.1,1012.7,0.00,0,0.0,////,0.0,0,0.0,////,16.7,0.0,12.3,3.513
2011/04/02,00:10:01,161,164,168,1.4,1.5,1.6,17.6,62.6,1012.6,0.00,0,0.0,////,0.0,0,0.0,////,16.3,0.0,12.3,3.511
2011/04/02,00:20:01,161,166,171,0.8,0.9,0.9,17.7,62.2,1012.5,0.00,0,0.0,////,0.0,0,0.0,////,16.2,0.0,12.3,3.515
2011/04/02,00:30:01,099,129,145,1.9,2.1,2.3,17.6,62.9,1012.3,0.00,0,0.0,////,0.0,0,0.0,////,16.0,0.0,12.2,3.514
2011/04/02,00:40:01,154,168,177,0.8,0.9,1.0,17.7,63.0,1012.3,0.00,0,0.0,////,0.0,0,0.0,////,16.3,0.0,12.3,3.513
2011/04/02,00:50:01,167,173,181,1.0,1.2,1.4,17.7,62.6,1012.2,0.00,0,0.0,////,0.0,0,0.0,////,16.5,0.0,12.3,3.514
2011/04/02,01:00:01,116,128,139,1.4,1.5,1.7,17.7,62.7,1012.1,0.00,0,0.0,////,0.0,0,0.0,////,16.3,0.0,12.3,3.513
2011/04/02,01:10:01,135,144,152,0.9,1.0,1.0,17.6,62.9,1012.0,0.00,0,0.0,////,0.0,0,0.0,////,16.3,0.0,12.3,3.523
2011/04/02,01:20:01,146,151,159,1.2,1.4,1.7,17.4,63.4,1011.9,0.00,0,0.0,////,0.0,0,0.0,////,16.0,0.0,12.4,3.511
2011/04/02,01:30:01,118,123,130,0.6,0.7,1.0,17.5,63.0,1011.9,0.00,0,0.0,////,0.0,0,0.0,////,16.2,0.0,12.3,3.513
2011/04/02,01:40:01,131,137,142,0.7,0.9,1.1,17.6,63.2,1011.8,0.00,0,0.0,////,0.0,0,0.0,////,16.3,0.0,12.2,3.516
2011/04/02,01:50:01,130,141,152,1.5,1.6,1.7,17.7,63.3,1011.7,0.00,0,0.0,////,0.0,0,0.0,////,16.5,0.0,12.3,3.514
2011/04/02,02:00:01,130,140,156,0.8,1.1,1.3,17.8,62.7,1011.5,0.00,0,0.0,////,0.0,0,0.0,////,16.5,0.0,12.3,3.514
2011/04/02,02:10:01,117,125,134,0.8,0.9,1.0,17.7,62.3,1011.5,0.00,0,0.0,////,0.0,0,0.0,////,16.5,0.0,12.3,3.513
2011/04/02,02:20:01,140,160,172,0.8,1.0,1.1,17.7,62.5,1011.5,0.00,0,0.0,////,0.0,0,0.0,////,16.3,0.0,12.3,3.513
2011/04/02,02:30:01,125,129,132,2.3,2.4,2.6,17.7,62.8,1011.4,0.00,0,0.0,////,0.0,0,0.0,////,16.3,0.0,12.3,3.521
2011/04/02,02:40:01,144,159,176,0.8,1.1,1.5,17.6,62.7,1011.3,0.00,0,0.0,////,0.0,0,0.0,////,16.3,0.0,12.3,3.511
2011/04/02,02:50:01,141,146,154,1.1,1.4,1.5,17.6,61.9,1011.1,0.00,0,0.0,////,0.0,0,0.0,////,16.0,0.0,12.4,3.513
2011/04/02,03:00:01,175,176,178,2.0,2.1,2.2,17.6,61.1,1011.0,0.00,0,0.0,////,0.0,0,0.0,////,16.0,0.0,12.3,3.515
2011/04/02,03:10:01,128,139,155,1.3,1.4,1.5,17.6,62.1,1010.9,0.00,0,0.0,////,0.0,0,0.0,////,16.2,0.0,12.3,3.513
2011/04/02,03:20:01,135,149,162,1.2,1.4,1.5,17.9,61.2,1010.8,0.00,0,0.0,////,0.0,0,0.0,////,16.5,0.0,12.3,3.511
2011/04/02,03:30:01,161,166,172,1.6,1.9,2.1,17.8,61.1,1010.7,0.00,0,0.0,////,0.0,0,0.0,////,16.5,0.0,12.3,3.513
2011/04/02,03:40:01,161,168,174,1.3,1.5,1.7,17.8,61.8,1010.6,0.00,0,0.0,////,0.0,0,0.0,////,16.5,0.0,12.2,3.513
2011/04/02,03:50:01,165,168,170,0.6,0.8,1.0,17.8,61.8,1010.6,0.00,0,0.0,////,0.0,0,0.0,////,16.3,0.0,12.3,3.513
2011/04/02,04:00:01,166,172,177,2.0,2.1,2.2,17.5,62.7,1010.5,0.00,0,0.0,////,0.0,0,0.0,////,16.2,0.0,12.3,3.516
2011/04/02,04:10:01,165,167,170,0.9,1.1,1.4,17.7,63.1,1010.5,0.00,0,0.0,////,0.0,0,0.0,////,16.5,0.0,12.3,3.513
2011/04/02,04:20:01,111,139,166,0.7,0.9,1.0,17.7,64.1,1010.5,0.00,0,0.0,////,0.0,0,0.0,////,16.5,0.0,12.2,3.511
2011/04/02,04:30:01,122,142,171,1.0,1.1,1.3,17.7,64.9,1010.4,0.00,0,0.0,////,0.0,0,0.0,////,16.3,0.0,12.3,3.514
2011/04/02,04:40:01,149,160,171,0.9,1.0,1.3,17.5,65.2,1010.5,0.00,0,0.0,////,0.0,0,0.0,////,16.2,0.0,12.3,3.511
2011/04/02,04:50:01,135,139,142,0.8,1.0,1.1,17.6,63.9,1010.5,0.00,0,0.0,////,0.0,0,0.0,////,16.2,0.0,12.3,3.511
2011/04/02,05:00:01,152,160,165,1.3,1.4,1.4,17.7,64.3,1010.5,0.00,0,0.0,////,0.0,0,0.0,////,16.5,0.0,12.3,3.510
2011/04/02,05:10:01,137,150,165,0.4,0.5,0.6,17.9,63.2,1010.6,0.00,0,0.0,////,0.0,0,0.0,////,16.9,0.0,12.3,3.521
2011/04/02,05:20:01,125,133,138,0.8,1.0,1.3,18.0,63.2,1010.6,0.00,0,0.0,////,0.0,0,0.0,////,16.9,0.0,12.3,3.513
2011/04/02,05:30:01,174,181,187,1.3,1.5,1.7,18.0,62.7,1010.6,0.00,0,0.0,////,0.0,0,0.0,////,16.9,0.0,12.3,3.511
2011/04/02,05:40:01,119,126,138,1.2,1.3,1.4,17.9,63.1,1010.7,0.00,0,0.0,////,0.0,0,0.0,////,16.5,0.0,12.4,3.513
2011/04/02,05:50:01,139,144,151,1.2,1.3,1.4,17.8,63.3,1010.8,0.00,0,0.0,////,0.0,0,0.0,////,16.5,0.0,12.3,3.513
2011/04/02,06:00:01,145,154,158,0.6,0.8,0.9,17.5,63.9,1010.8,0.00,0,0.0,////,0.0,0,0.0,////,16.0,0.0,12.3,3.513
2011/04/02,06:10:01,130,137,144,0.6,0.7,0.9,17.1,65.4,1010.8,0.00,0,0.0,////,0.0,0,0.0,////,15.8,0.0,12.3,3.513
2011/04/02,06:20:01,129,132,137,0.8,1.0,1.1,16.7,66.4,1010.8,0.00,0,0.0,////,0.0,0,0.0,////,15.5,0.0,12.2,3.523
2011/04/02,06:30:01,130,135,142,0.7,0.8,1.0,16.4,67.2,1010.9,0.00,0,0.0,////,0.0,0,0.0,////,15.0,0.0,12.3,3.524
2011/04/02,06:40:01,138,142,147,1.2,1.3,1.4,16.4,67.5,1010.9,0.00,0,0.0,////,0.0,0,0.0,////,15.0,0.0,12.3,3.514
2011/04/02,06:50:01,132,135,137,0.8,1.1,1.2,16.5,67.8,1011.0,0.00,0,0.0,////,0.0,0,0.0,////,15.1,0.0,12.3,3.513
2011/04/02,07:00:01,119,127,132,1.1,1.3,1.4,17.0,67.0,1011.0,0.00,0,0.0,////,0.0,0,0.0,////,16.0,0.0,12.3,3.510
2011/04/02,07:10:01,112,127,149,1.0,1.1,1.2,17.4,66.9,1011.2,0.00,0,0.0,////,0.0,0,0.0,////,16.7,0.0,12.3,3.513
2011/04/02,07:20:01,130,135,140,0.8,0.9,1.0,17.8,66.5,1011.2,0.00,0,0.0,////,0.0,0,0.0,////,17.5,0.0,12.3,3.513
2011/04/02,07:30:01,085,086,087,1.2,1.3,1.4,18.3,65.2,1011.4,0.00,0,0.0,////,0.0,0,0.0,////,18.6,0.0,12.3,3.513
2011/04/02,07:40:01,094,099,107,1.2,1.5,1.7,18.8,64.7,1011.4,0.00,0,0.0,////,0.0,0,0.0,////,19.4,0.0,12.2,3.521
2011/04/02,07:50:01,029,045,056,0.7,1.2,1.4,19.2,63.3,1011.5,0.00,0,0.0,////,0.0,0,0.0,////,20.3,0.0,12.2,3.513
2011/04/02,08:00:01,033,045,060,1.3,1.4,1.7,19.4,62.2,1011.5,0.00,0,0.0,////,0.0,0,0.0,////,20.6,0.0,12.2,3.511
2011/04/02,08:10:01,077,082,089,1.3,1.5,1.7,19.5,61.2,1011.6,0.00,0,0.0,////,0.0,0,0.0,////,20.8,0.0,12.3,3.513
2011/04/02,08:20:01,044,045,046,2.2,2.4,2.5,19.7,60.1,1011.7,0.00,0,0.0,////,0.0,0,0.0,////,21.3,0.0,12.3,3.513
2011/04/02,08:30:01,033,041,046,1.5,1.8,2.0,19.8,57.8,1011.7,0.00,0,0.0,////,0.0,0,0.0,////,21.5,0.0,12.3,3.511
2011/04/02,08:40:01,104,116,139,2.1,2.2,2.3,20.0,56.4,1011.8,0.00,0,0.0,////,0.0,0,0.0,////,21.8,0.0,12.4,3.510
2011/04/02,08:50:01,308,005,056,0.3,0.5,0.8,20.3,56.1,1011.9,0.00,0,0.0,////,0.0,0,0.0,////,22.5,0.0,12.3,3.521
2011/04/02,09:00:01,006,033,083,1.0,1.4,1.8,20.5,54.6,1012.0,0.00,0,0.0,////,0.0,0,0.0,////,22.9,0.0,12.3,3.520
2011/04/02,09:10:01,077,082,088,1.5,1.8,2.2,20.6,55.2,1012.0,0.00,0,0.0,////,0.0,0,0.0,////,23.1,0.0,12.3,3.511
2011/04/02,09:20:01,116,122,129,2.6,3.1,3.6,20.9,54.1,1012.0,0.00,0,0.0,////,0.0,0,0.0,////,23.4,0.0,12.3,3.511
2011/04/02,09:30:01,253,354,078,0.3,0.6,0.7,21.0,54.5,1012.0,0.00,0,0.0,////,0.0,0,0.0,////,23.4,0.0,12.3,3.511
2011/04/02,09:40:01,020,026,029,0.8,1.1,1.4,21.0,55.8,1012.0,0.00,0,0.0,////,0.0,0,0.0,////,23.6,0.0,12.3,3.511
2011/04/02,09:50:01,066,076,089,1.5,1.8,2.1,21.0,53.0,1011.9,0.00,0,0.0,////,0.0,0,0.0,////,23.9,0.0,12.2,3.511
2011/04/02,10:00:01,089,092,097,2.2,2.4,2.5,21.2,51.9,1011.9,0.00,0,0.0,////,0.0,0,0.0,////,24.1,0.0,12.3,3.513
2011/04/02,10:10:01,071,075,081,2.9,3.0,3.2,21.2,51.9,1011.8,0.00,0,0.0,////,0.0,0,0.0,////,23.9,0.0,12.2,3.520
2011/04/02,10:20:01,085,115,136,1.0,1.5,2.1,21.2,52.6,1011.7,0.00,0,0.0,////,0.0,0,0.0,////,24.1,0.0,12.1,3.513
2011/04/02,10:30:01,086,094,109,2.6,2.8,2.9,21.1,51.4,1011.7,0.00,0,0.0,////,0.0,0,0.0,////,24.4,0.0,12.3,3.511
2011/04/02,10:40:01,077,088,097,3.2,3.4,3.6,21.2,52.7,1011.8,0.00,0,0.0,////,0.0,0,0.0,////,24.4,0.0,12.3,3.513